Location: Most
(50.5133°N, 13.6207°E)
Time: 09:41:05
(UTC+02:00)

ISS - Pass Details

Date: 19 July 2018
Orbit: 402 x 408 km, 51.6° (Epoch: 17 July)

Event Time Altitude Azimuth Distance (km) Brightness Sun altitude
Rises 23:01:17 0° 226° (SW) 2,313 -0.1 -13.2°
Reaches altitude 10° 23:03:27 10° 217° (SW) 1,458 -1.2 -13.3°
Maximum altitude 23:06:27 34° 150° (SSE) 684 -3.2 -13.6°
Drops below altitude 10° 23:09:29 10° 83° (E) 1,467 -1.2 -13.8°
Sets 23:11:40 0° 74° (ENE) 2,331 -0.1 -14.0°
